Regional Weather Roundup
Issued by NWS

Home | Current Version | Previous Version | Graphics & Text | Print | Product List | Glossary On
Versions: 1 2 3 4 5 6 7 8 9 10 11 12 13 14 15 16 17 18 19 20 21 22 23 24 25 26 27 28 29 30 31 32 33 34 35 36 37 38 39 40 41 42 43 44 45 46 47 48 49 50
000
ASUS43 KIND 231809
RWRIN

WEATHER ROUNDUP FOR INDIANA
NATIONAL WEATHER SERVICE INDIANAPOLIS IN
200 PM EDT MON OCT 23 2017

NOTE: "FAIR" INDICATES FEW OR NO CLOUDS BELOW 12,000 FEET WITH NO
SIGNIFICANT WEATHER AND/OR OBSTRUCTIONS TO VISIBILITY.

* - STATION DOES NOT REPORT WEATHER SUCH AS PRECIPITATION OR FOG.

+ - STATION NOT QUALITY CONTROLLED BY THE NATIONAL WEATHER SERVICE.
    USE DATA WITH CAUTION...ESPECIALLY DEWPOINT AND RELATIVE
    HUMIDITY OBSERVATIONS.

INZ001>003-010>013-019-020-231900-
NORTHWEST INDIANA

CITY           SKY/WX    TMP DP  RH WIND       PRES   REMARKS
KNOX *+        CLOUDY    54  54 100 N13       29.67F
LA PORTE +     HVY RAIN  54  53  96 N18       29.68F
6HR MIN TEMP:  54; 6HR MAX TEMP:  55;

MICHIGAN CITY+ HVY RAIN  54  54 100 N13       29.71F
MONTICELLO +   HVY RAIN  55  54  95 NW20G25   29.65F
6HR MIN TEMP:  55; 6HR MAX TEMP:  60; 6HR PCP:  0.50;

RENSSELAER +   RAIN      55  50  82 NW12G21   29.70F
VALPARAISO     RAIN      55  54  96 NW13G20   29.69F FOG
6HR MIN TEMP:  55; 6HR MAX TEMP:  57; 6HR PCP:  0.70;


$$

LMZ046-743>745-231900-
SOUTHERN LAKE MICHIGAN

STATION/POSITION TIME  TEMP    WIND        PRES    WAVE
                       AIR SEA DIR/SP/G            HT
                 (UTC) (F)     (DEG/KT/KT) (MB)    (FT)
BURNS HARBOR     1740   54     340/ 20/ 24 1007.1F
MICHIGAN CITY    1740   54     340/ 22/ 24   N/A
5NW MICH CITY    1800   54 57  350/ 17/ 23   N/A     7

$$

INZ004-005-014>016-021>024-231900-
NORTH CENTRAL INDIANA

CITY           SKY/WX    TMP DP  RH WIND       PRES   REMARKS
ELKHART        LGT RAIN  55  54  94 N6        29.64F FOG
GOSHEN         RAIN      61  57  87 E6        29.62F FOG
6HR MIN TEMP:  60; 6HR MAX TEMP:  61; 6HR PCP:  0.23;

LOGANSPORT +   RAIN      55  55 100 NW9       29.62F
PERU/GRISSOM   LGT RAIN  62  62 100 SW8       29.59F
6HR MIN TEMP:  60; 6HR MAX TEMP:  62; 6HR PCP:  0.18;

SOUTH BEND     RAIN      52  50  93 N15       29.66F
6HR MIN TEMP:  52; 6HR MAX TEMP:  55; 6HR PCP:  0.52;

WARSAW +       RAIN      61  59  94 SE6       29.61F

$$

INZ006>009-017-018-025>027-231900-
NORTHEAST INDIANA

CITY           SKY/WX    TMP DP  RH WIND       PRES   REMARKS
AUBURN +       LGT RAIN  63  59  88 E5        29.64F
FORT WAYNE     LGT RAIN  63  59  87 SE12      29.62F
6HR MIN TEMP:  60; 6HR MAX TEMP:  64; 6HR PCP:  0.07;

HUNTINGTON +   DRIZZLE   61  60  96 S7        29.61F
6HR MIN TEMP:  59; 6HR MAX TEMP:  63; 6HR PCP:  0.03;

KENDALLVILLE + RAIN      61  59  94 SE7       29.64F

$$

INZ028-029-035-036-043>045-051>053-231900-
WEST CENTRAL INDIANA

CITY           SKY/WX    TMP DP  RH WIND       PRES   REMARKS
GREENCASTLE +  LGT RAIN  55  55 100 W6        29.68F
LAFAYETTE      LGT RAIN  56  55  97 NW14G21   29.68F FOG
6HR MIN TEMP:  55; 6HR MAX TEMP:  62; 6HR PCP:  0.50;

TERRE HAUTE    LGT RAIN  56  53  90 NW14G20   29.70F
6HR MIN TEMP:  55; 6HR MAX TEMP:  64; 6HR PCP:  0.16;


$$

INZ030>032-037>040-046>048-054>057-064-065-231900-
CENTRAL INDIANA

CITY           SKY/WX    TMP DP  RH WIND       PRES   REMARKS
ANDERSON       CLOUDY    63  57  82 SW17G23   29.68S
CP ATTERBURY + CLOUDY    59  55  88 SW5       29.72R
COLUMBUS       CLOUDY    59  55  88 SW10      29.70F
FISHERS *+     CLOUDY    61  61 100 SW9       29.65F
FRANKFORT +    LGT RAIN  59  57  94 NW14G22   29.67F
6HR MIN TEMP:  58; 6HR MAX TEMP:  64; 6HR PCP:  0.33;

GREENWOOD *+   PTSUNNY   63  58  83 W13G20    29.69F
6HR MIN TEMP:  63; 6HR MAX TEMP:  65;

INDIANAPOLIS   CLOUDY    60  56  86 SW16G25   29.66F
6HR MIN TEMP:  60; 6HR MAX TEMP:  63; 6HR PCP:  0.08;

-EAGLE CREEK   CLOUDY    60  56  86 SW8G16    29.66F
6HR MIN TEMP:  60; 6HR MAX TEMP:  63; 6HR PCP:  0.07;

KOKOMO +       LGT RAIN  62  61  96 S17       29.61F
6HR MIN TEMP:  60; 6HR MAX TEMP:  62; 6HR PCP:  0.15;

MARION +       CLOUDY    61  57  88 S16       29.62F FOG
MT COMFORT *+  CLOUDY    61  61 100 SW8G18    29.67F
SHELBYVILLE    LGT RAIN  63  56  78 SW13      29.68F
6HR MIN TEMP:  62; 6HR MAX TEMP:  65; 6HR PCP:  0.01;

ZIONSVILLE +   DRIZZLE   59  58  97 SW13G23   29.65F
6HR MIN TEMP:  59; 6HR MAX TEMP:  62; 6HR PCP:  0.10;


$$

INZ033-034-041-042-049-050-058-059-231900-
EAST CENTRAL INDIANA

CITY           SKY/WX    TMP DP  RH WIND       PRES   REMARKS
MUNCIE         CLOUDY    66  59  78 SW8G18    29.64F
6HR MIN TEMP:  63; 6HR MAX TEMP:  67; 6HR PCP:  0.03;

RICHMOND +     CLOUDY    61  59  94 S13       29.70F

$$

INZ060-061-067>069-081>083-085>088-231900-
SOUTHWEST INDIANA

CITY           SKY/WX    TMP DP  RH WIND       PRES   REMARKS
EVANSVILLE     CLOUDY    55  52  89 W14G20    29.79S FOG
6HR MIN TEMP:  53; 6HR MAX TEMP:  55; 6HR PCP: TRACE;

HUNTINGBURG +  LGT RAIN  55  53  93 SW12      29.76S FOG
6HR MIN TEMP:  54; 6HR MAX TEMP:  61; 6HR PCP:  0.06;

WASHINGTON +   DRIZZLE   55  54  94 W7        29.73F
                                      6HR PCP:  0.06;


$$

INZ062-063-066-070>080-084-089>092-231900-
SOUTH CENTRAL AND SOUTHEAST INDIANA

CITY           SKY/WX    TMP DP  RH WIND       PRES   REMARKS
BEDFORD +      CLOUDY    57  54  88 SW7       29.71S
BLOOMINGTON    CLOUDY    56  53  90 W7        29.72S
6HR MIN TEMP:  56; 6HR MAX TEMP:  63; 6HR PCP:  0.07;

MADISON *+     CLOUDY    61  59  94 SW6       29.73S
NORTH VERNON + LGT RAIN  59  57  94 SW21G29   29.72S
SEYMOUR +      CLOUDY    59  57  94 SW10      29.72S

$$





USA.gov is the U.S. government's official web portal to all federal, state and local government web resources and services.